time, Switch, Flow(0), Analog(2)
yyyy/mm/dd HH:MM:SS.fff, True=FILTERED|False=TOTAL, L/min, V
2023/06/08 10:00:03.912, True, 3.979, 0.151369
2023/06/08 10:00:04.417, True, 2.984, 0.153582
2023/06/08 10:00:04.913, True, 2.022, 0.150607
2023/06/08 10:00:05.416, True, 1.989, 0.151293
2023/06/08 10:00:05.921, True, 1.990, 0.151293
2023/06/08 10:00:06.417, True, 1.684, 0.151522
2023/06/08 10:00:06.921, True, 1.991, 0.148623
2023/06/08 10:00:07.424, True, 1.659, 0.151369
2023/06/08 10:00:07.921, True, 1.682, 0.152285
2023/06/08 10:00:08.424, True, 1.990, 0.151751
2023/06/08 10:00:08.929, True, 1.658, 0.149004
2023/06/08 10:00:09.425, True, 2.022, 0.153048
2023/06/08 10:00:09.929, True, 1.658, 0.151141
2023/06/08 10:00:10.433, True, 1.658, 0.151293
2023/06/08 10:00:10.928, True, 2.022, 0.152590
2023/06/08 10:00:11.432, True, 1.658, 0.151141
2023/06/08 10:00:11.937, True, 1.990, 0.150225
2023/06/08 10:00:12.441, True, 1.658, 0.152514
2023/06/08 10:00:12.937, True, 2.022, 0.152056
2023/06/08 10:00:13.441, True, 1.658, 0.152209
2023/06/08 10:00:13.945, True, 1.990, 0.150988
2023/06/08 10:00:14.441, True, 1.685, 0.152972
2023/06/08 10:00:14.945, True, 1.993, 0.151980
2023/06/08 10:00:15.449, True, 1.655, 0.150759
2023/06/08 10:00:15.944, True, 2.021, 0.149920
2023/06/08 10:00:16.449, True, 1.990, 0.152667
2023/06/08 10:00:16.952, True, 1.658, 0.150607
2023/06/08 10:00:17.449, True, 2.022, 0.153124
2023/06/08 10:00:17.952, True, 1.990, 0.152667
2023/06/08 10:00:18.448, True, 1.685, 0.151446
2023/06/08 10:00:18.953, True, 1.990, 0.151369
2023/06/08 10:00:19.457, True, 1.990, 0.149615
2023/06/08 10:00:19.953, True, 1.684, 0.150759
2023/06/08 10:00:20.456, True, 1.990, 0.151446
2023/06/08 10:00:20.961, True, 1.658, 0.153201
2023/06/08 10:00:21.457, True, 1.348, 0.152514
2023/06/08 10:00:21.961, True, 1.658, 0.153124
2023/06/08 10:00:22.465, True, 1.990, 0.152056
2023/06/08 10:00:22.961, True, 1.684, 0.150759
2023/06/08 10:00:23.465, True, 1.990, 0.150683
2023/06/08 10:00:23.969, True, 1.990, 0.150912
2023/06/08 10:00:24.465, True, 1.685, 0.150454
2023/06/08 10:00:24.968, True, 1.989, 0.152132
2023/06/08 10:00:25.473, True, 1.658, 0.151751
2023/06/08 10:00:25.969, True, 2.024, 0.153506
2023/06/08 10:00:26.473, True, 1.656, 0.152514
2023/06/08 10:00:26.976, True, 1.990, 0.150988
2023/06/08 10:00:27.473, True, 1.684, 0.150149
2023/06/08 10:00:27.977, True, 1.658, 0.150225
2023/06/08 10:00:28.481, True, 1.989, 0.153658
2023/06/08 10:00:28.976, True, 1.685, 0.152132
2023/06/08 10:00:29.481, True, 1.990, 0.151675
2023/06/08 10:00:29.985, True, 1.989, 0.150988
2023/06/08 10:00:30.480, True, 1.685, 0.150759
2023/06/08 10:00:30.984, True, 1.989, 0.149691
2023/06/08 10:00:31.489, True, 1.658, 0.151446
2023/06/08 10:00:31.984, True, 1.685, 0.150301
2023/06/08 10:00:32.488, True, 1.990, 0.152285
2023/06/08 10:00:32.985, True, 1.685, 0.151064
2023/06/08 10:00:33.489, True, 1.989, 0.151751
2023/06/08 10:00:33.992, True, 1.658, 0.151904
2023/06/08 10:00:34.489, True, 2.022, 0.151369
2023/06/08 10:00:34.992, True, 1.661, 0.153964
2023/06/08 10:00:35.497, True, 1.987, 0.152361
2023/06/08 10:00:35.992, True, 1.684, 0.150225
2023/06/08 10:00:36.497, True, 1.990, 0.152667
2023/06/08 10:00:36.993, True, 1.684, 0.153582
2023/06/08 10:00:37.497, True, 1.990, 0.151827
2023/06/08 10:00:38.001, True, 1.990, 0.152895
2023/06/08 10:00:38.496, True, 1.684, 0.153506
2023/06/08 10:00:39.001, True, 1.990, 0.152361
2023/06/08 10:00:39.505, True, 1.992, 0.152972
2023/06/08 10:00:40.001, True, 2.019, 0.152361
2023/06/08 10:00:40.505, True, 1.989, 0.156100
2023/06/08 10:00:41.009, True, 1.658, 0.153658
2023/06/08 10:00:41.504, True, 1.685, 0.156100
2023/06/08 10:00:42.008, True, 1.658, 0.158007
2023/06/08 10:00:42.512, True, 1.658, 0.156634
2023/06/08 10:00:43.009, True, 2.022, 0.159075
2023/06/08 10:00:43.513, True, 1.658, 0.160220
2023/06/08 10:00:44.017, True, 1.990, 0.157855
2023/06/08 10:00:44.513, True, 1.685, 0.158160
2023/06/08 10:00:45.017, True, 1.658, 0.159075
2023/06/08 10:00:45.520, True, 1.990, 0.159075
2023/06/08 10:00:46.024, True, 1.658, 0.155947
2023/06/08 10:00:46.521, True, 2.022, 0.159838
2023/06/08 10:00:47.024, True, 1.989, 0.161669
2023/06/08 10:00:47.529, True, 1.658, 0.159152
2023/06/08 10:00:48.025, True, 2.022, 0.162432
2023/06/08 10:00:48.528, True, 1.990, 0.157931
2023/06/08 10:00:49.032, True, 1.993, 0.159457
2023/06/08 10:00:49.528, True, 1.681, 0.159380
2023/06/08 10:00:50.032, True, 1.990, 0.160143
2023/06/08 10:00:50.528, True, 1.685, 0.160678
2023/06/08 10:00:51.032, True, 1.992, 0.161669
2023/06/08 10:00:51.536, True, 1.987, 0.162127
2023/06/08 10:00:52.032, True, 1.685, 0.162280
2023/06/08 10:00:52.536, True, 1.990, 0.160830
2023/06/08 10:00:53.041, True, 1.989, 0.160449
2023/06/08 10:00:53.536, True, 1.685, 0.160983
2023/06/08 10:00:54.040, True, 1.990, 0.160067
2023/06/08 10:00:54.544, True, 1.658, 0.162127
2023/06/08 10:00:55.040, True, 2.022, 0.160296
2023/06/08 10:00:55.544, True, 1.990, 0.161059
2023/06/08 10:00:56.048, True, 1.990, 0.162203
2023/06/08 10:00:56.544, True, 1.685, 0.162356
2023/06/08 10:00:57.048, True, 1.990, 0.164034
2023/06/08 10:00:57.552, True, 1.657, 0.164416
2023/06/08 10:00:58.048, True, 2.021, 0.162814
2023/06/08 10:00:58.552, True, 1.991, 0.163958
2023/06/08 10:00:59.056, True, 1.657, 0.161364
2023/06/08 10:00:59.552, True, 1.685, 0.164721
2023/06/08 10:01:00.056, True, 1.993, 0.163653
2023/06/08 10:01:00.560, True, 1.656, 0.164416
2023/06/08 10:01:01.064, True, 1.657, 0.162966
2023/06/08 10:01:01.560, True, 2.022, 0.163348
2023/06/08 10:01:02.064, True, 1.660, 0.165179
2023/06/08 10:01:02.568, True, 1.656, 0.163424
2023/06/08 10:01:03.064, True, 2.022, 0.162432
2023/06/08 10:01:03.568, True, 1.660, 0.164950
2023/06/08 10:01:04.072, True, 1.987, 0.164034
2023/06/08 10:01:04.568, True, 1.688, 0.164569
2023/06/08 10:01:05.072, True, 1.655, 0.164569
2023/06/08 10:01:05.576, True, 1.989, 0.166476
2023/06/08 10:01:06.072, True, 1.685, 0.166705
2023/06/08 10:01:06.576, True, 1.658, 0.165484
2023/06/08 10:01:07.080, True, 1.989, 0.162127
2023/06/08 10:01:07.576, True, 1.685, 0.162432
2023/06/08 10:01:08.080, True, 1.658, 0.165408
2023/06/08 10:01:08.584, True, 1.658, 0.163577
2023/06/08 10:01:09.080, True, 2.025, 0.163043
2023/06/08 10:01:09.584, True, 1.655, 0.162585
2023/06/08 10:01:10.088, True, 1.990, 0.162890
2023/06/08 10:01:10.584, True, 1.685, 0.163577
2023/06/08 10:01:11.088, True, 1.990, 0.165484
2023/06/08 10:01:11.592, True, 1.990, 0.163577
2023/06/08 10:01:12.088, True, 2.024, 0.163729
2023/06/08 10:01:12.592, True, 1.987, 0.161440
2023/06/08 10:01:13.096, True, 1.660, 0.163958
2023/06/08 10:01:13.592, True, 2.019, 0.163958
2023/06/08 10:01:14.096, True, 1.658, 0.164263
2023/06/08 10:01:14.600, True, 1.990, 0.164111
2023/06/08 10:01:15.096, True, 1.685, 0.164416
2023/06/08 10:01:15.600, True, 1.990, 0.164340
2023/06/08 10:01:16.096, True, 1.685, 0.163043
2023/06/08 10:01:16.600, True, 1.658, 0.164492
2023/06/08 10:01:17.104, True, 1.658, 0.162585
2023/06/08 10:01:17.600, True, 1.685, 0.163882
2023/06/08 10:01:18.104, True, 1.990, 0.163043
2023/06/08 10:01:18.608, True, 1.989, 0.163043
2023/06/08 10:01:19.112, True, 1.658, 0.164950
2023/06/08 10:01:19.608, True, 2.022, 0.163119
2023/06/08 10:01:20.112, True, 1.990, 0.162203
2023/06/08 10:01:20.608, True, 1.685, 0.163043
2023/06/08 10:01:21.112, True, 1.990, 0.164569
2023/06/08 10:01:21.616, True, 1.989, 0.164263
2023/06/08 10:01:22.112, True, 1.685, 0.165484
2023/06/08 10:01:22.615, True, 1.658, 0.166323
2023/06/08 10:01:23.120, True, 1.990, 0.163119
2023/06/08 10:01:23.616, True, 1.685, 0.164950
2023/06/08 10:01:24.120, True, 1.658, 0.160296
2023/06/08 10:01:24.624, True, 1.658, 0.163882
2023/06/08 10:01:25.120, True, 2.021, 0.162661
2023/06/08 10:01:25.624, True, 1.990, 0.161898
2023/06/08 10:01:26.127, True, 1.660, 0.164340
2023/06/08 10:01:26.624, True, 2.019, 0.163119
2023/06/08 10:01:27.128, True, 1.990, 0.161975
2023/06/08 10:01:27.632, True, 1.989, 0.162509
2023/06/08 10:01:28.128, True, 2.022, 0.162814
2023/06/08 10:01:28.632, True, 1.658, 0.163577
2023/06/08 10:01:29.136, True, 1.658, 0.161288
2023/06/08 10:01:29.632, True, 2.022, 0.162737
2023/06/08 10:01:30.136, True, 1.659, 0.162661
2023/06/08 10:01:30.632, True, 2.021, 0.164111
2023/06/08 10:01:31.136, True, 1.661, 0.164034
2023/06/08 10:01:31.640, True, 1.986, 0.165560
2023/06/08 10:01:32.144, True, 1.658, 0.164721
2023/06/08 10:01:32.640, True, 2.023, 0.163882
2023/06/08 10:01:33.144, True, 1.658, 0.164263
2023/06/08 10:01:33.648, True, 1.658, 0.161822
2023/06/08 10:01:34.144, True, 2.021, 0.160678
2023/06/08 10:01:34.648, True, 1.658, 0.163577
2023/06/08 10:01:35.152, True, 1.990, 0.163195
2023/06/08 10:01:35.648, True, 1.685, 0.161364
2023/06/08 10:01:36.152, True, 1.658, 0.164721
2023/06/08 10:01:36.656, True, 1.990, 0.163577
2023/06/08 10:01:37.152, True, 1.685, 0.163195
2023/06/08 10:01:37.656, True, 1.660, 0.162127
2023/06/08 10:01:38.160, True, 1.987, 0.162203
2023/06/08 10:01:38.656, True, 2.022, 0.162737
2023/06/08 10:01:39.160, True, 1.990, 0.160678
2023/06/08 10:01:39.656, True, 1.684, 0.160601
2023/06/08 10:01:40.160, True, 1.990, 0.160754
2023/06/08 10:01:40.664, True, 1.658, 0.162890
2023/06/08 10:01:41.160, True, 2.022, 0.160372
2023/06/08 10:01:41.664, True, 1.658, 0.161669
2023/06/08 10:01:42.168, True, 1.990, 0.162127
2023/06/08 10:01:42.672, True, 1.658, 0.162585
2023/06/08 10:01:43.168, True, 2.022, 0.164187
2023/06/08 10:01:43.672, True, 1.658, 0.163348
2023/06/08 10:01:44.168, True, 2.022, 0.161898
2023/06/08 10:01:44.672, True, 1.658, 0.162814
2023/06/08 10:01:45.176, True, 1.658, 0.163043
2023/06/08 10:01:45.680, True, 1.990, 0.161059
2023/06/08 10:01:46.176, True, 1.685, 0.161364
2023/06/08 10:01:46.680, True, 1.993, 0.160906
2023/06/08 10:01:47.176, True, 1.682, 0.162127
2023/06/08 10:01:47.680, True, 1.658, 0.161822
2023/06/08 10:01:48.184, True, 1.660, 0.159762
2023/06/08 10:01:48.680, True, 2.020, 0.162585
2023/06/08 10:01:49.184, True, 1.658, 0.161364
2023/06/08 10:01:49.688, True, 1.990, 0.160678
2023/06/08 10:01:50.184, True, 1.685, 0.160830
2023/06/08 10:01:50.688, True, 1.990, 0.161440
2023/06/08 10:01:51.192, True, 1.658, 0.162737
2023/06/08 10:01:51.688, True, 2.022, 0.161822
2023/06/08 10:01:52.192, True, 1.658, 0.160754
2023/06/08 10:01:52.696, True, 1.992, 0.162509
2023/06/08 10:01:53.192, True, 1.682, 0.159838
2023/06/08 10:01:53.696, True, 1.993, 0.161975
2023/06/08 10:01:54.200, True, 1.655, 0.162051
2023/06/08 10:01:54.696, True, 2.022, 0.159533
2023/06/08 10:01:55.200, True, 1.661, 0.160525
2023/06/08 10:01:55.704, True, 1.986, 0.160983
2023/06/08 10:01:56.200, True, 1.685, 0.160678
2023/06/08 10:01:56.704, True, 1.658, 0.160906
2023/06/08 10:01:57.208, True, 1.992, 0.160754
2023/06/08 10:01:57.704, True, 1.682, 0.160983
2023/06/08 10:01:58.208, True, 1.658, 0.160906
2023/06/08 10:01:58.712, True, 1.992, 0.159686
2023/06/08 10:01:59.216, True, 1.656, 0.161669
2023/06/08 10:01:59.712, True, 1.685, 0.161593
2023/06/08 10:02:00.216, True, 1.990, 0.161212
2023/06/08 10:02:00.712, True, 2.021, 0.159533
2023/06/08 10:02:01.216, True, 1.658, 0.160983
2023/06/08 10:02:01.720, True, 1.658, 0.161898
2023/06/08 10:02:02.216, True, 2.021, 0.162737
2023/06/08 10:02:02.720, True, 1.658, 0.160830
2023/06/08 10:02:03.224, True, 1.658, 0.159304
2023/06/08 10:02:03.728, True, 1.658, 0.158389
2023/06/08 10:02:04.224, True, 2.021, 0.163272
2023/06/08 10:02:04.728, True, 1.658, 0.161822
2023/06/08 10:02:05.224, True, 1.684, 0.161135
2023/06/08 10:02:05.728, True, 1.658, 0.158312
2023/06/08 10:02:06.232, True, 1.658, 0.161669
2023/06/08 10:02:06.728, True, 1.687, 0.161975
2023/06/08 10:02:07.232, True, 1.987, 0.159075
2023/06/08 10:02:07.736, True, 1.658, 0.158541
2023/06/08 10:02:08.232, True, 1.684, 0.160830
2023/06/08 10:02:08.736, True, 1.658, 0.159228
2023/06/08 10:02:09.240, True, 1.989, 0.161669
2023/06/08 10:02:09.736, True, 1.685, 0.157397
2023/06/08 10:02:10.240, True, 1.989, 0.159686
2023/06/08 10:02:10.744, True, 1.658, 0.159838
2023/06/08 10:02:11.239, True, 1.685, 0.160372
2023/06/08 10:02:11.744, True, 1.658, 0.159533
2023/06/08 10:02:12.248, True, 1.990, 0.160220
2023/06/08 10:02:12.744, True, 1.686, 0.161746
2023/06/08 10:02:13.248, True, 1.657, 0.158541
2023/06/08 10:02:13.752, True, 1.990, 0.159762
2023/06/08 10:02:14.256, True, 1.989, 0.158923
2023/06/08 10:02:14.752, True, 1.684, 0.163272
2023/06/08 10:02:15.256, True, 1.991, 0.160220
2023/06/08 10:02:15.760, True, 1.659, 0.161975
2023/06/08 10:02:16.256, True, 1.682, 0.159762
2023/06/08 10:02:16.760, True, 1.658, 0.159533
2023/06/08 10:02:17.264, True, 1.660, 0.158923
2023/06/08 10:02:17.760, True, 2.022, 0.156634
2023/06/08 10:02:18.264, True, 1.659, 0.159686
2023/06/08 10:02:18.768, True, 1.655, 0.159915
2023/06/08 10:02:19.264, True, 2.023, 0.159152
2023/06/08 10:02:19.767, True, 1.989, 0.161593
2023/06/08 10:02:20.272, True, 1.661, 0.158236
2023/06/08 10:02:20.768, True, 2.018, 0.160220
2023/06/08 10:02:21.271, True, 1.658, 0.159228
2023/06/08 10:02:21.776, True, 1.658, 0.158923
2023/06/08 10:02:22.280, True, 1.658, 0.161440
2023/06/08 10:02:22.776, True, 1.685, 0.158618
2023/06/08 10:02:23.279, True, 1.658, 0.158312
2023/06/08 10:02:23.784, True, 1.658, 0.158160
2023/06/08 10:02:24.280, True, 1.684, 0.161440
2023/06/08 10:02:24.784, True, 1.991, 0.158770
2023/06/08 10:02:25.288, True, 1.657, 0.159457
2023/06/08 10:02:25.784, True, 2.021, 0.158618
2023/06/08 10:02:26.287, True, 1.658, 0.158923
2023/06/08 10:02:26.792, True, 1.658, 0.158694
2023/06/08 10:02:27.288, True, 2.022, 0.159304
2023/06/08 10:02:27.792, True, 1.661, 0.159991
2023/06/08 10:02:28.296, True, 1.986, 0.158465
2023/06/08 10:02:28.792, True, 1.684, 0.160067
2023/06/08 10:02:29.296, True, 1.660, 0.158541
2023/06/08 10:02:29.800, True, 1.991, 0.157778
2023/06/08 10:02:30.296, True, 1.682, 0.158923
2023/06/08 10:02:30.800, True, 1.661, 0.159304
2023/06/08 10:02:31.304, True, 1.990, 0.159152
2023/06/08 10:02:31.800, True, 1.682, 0.160372
2023/06/08 10:02:32.304, True, 1.992, 0.157549
2023/06/08 10:02:32.808, True, 1.656, 0.157168
2023/06/08 10:02:33.312, True, 1.659, 0.158694
2023/06/08 10:02:33.808, True, 2.020, 0.157397
2023/06/08 10:02:34.312, True, 1.659, 0.158923
2023/06/08 10:02:34.808, True, 2.021, 0.158465
2023/06/08 10:02:35.312, True, 1.657, 0.159075
2023/06/08 10:02:35.816, True, 1.990, 0.158618
2023/06/08 10:02:36.312, True, 1.686, 0.156786
2023/06/08 10:02:36.816, True, 1.988, 0.158007
2023/06/08 10:02:37.319, True, 1.658, 0.157168
2023/06/08 10:02:37.816, True, 1.685, 0.159686
2023/06/08 10:02:38.319, True, 1.990, 0.161212
2023/06/08 10:02:38.824, True, 1.658, 0.161288
2023/06/08 10:02:39.320, True, 2.025, 0.158389
2023/06/08 10:02:39.824, True, 1.658, 0.160678
2023/06/08 10:02:40.328, True, 1.656, 0.158083
2023/06/08 10:02:40.824, True, 2.021, 0.157702
2023/06/08 10:02:41.328, True, 1.660, 0.158770
2023/06/08 10:02:41.832, True, 1.656, 0.159380
2023/06/08 10:02:42.328, True, 2.022, 0.159533
2023/06/08 10:02:42.832, True, 1.658, 0.158541
2023/06/08 10:02:43.336, True, 1.658, 0.156863
2023/06/08 10:02:43.832, True, 2.022, 0.156634
2023/06/08 10:02:44.336, True, 1.993, 0.156176
2023/06/08 10:02:44.840, True, 1.655, 0.159457
2023/06/08 10:02:45.336, True, 1.685, 0.159686
2023/06/08 10:02:45.840, True, 1.989, 0.157321
2023/06/08 10:02:46.344, True, 1.662, 0.156329
2023/06/08 10:02:46.840, True, 1.681, 0.157931
2023/06/08 10:02:47.344, True, 1.990, 0.157244
2023/06/08 10:02:47.848, True, 1.658, 0.157168
2023/06/08 10:02:48.344, True, 2.022, 0.159533
2023/06/08 10:02:48.848, True, 1.657, 0.157626
2023/06/08 10:02:49.352, True, 1.658, 0.157473
2023/06/08 10:02:49.848, True, 1.686, 0.158770
2023/06/08 10:02:50.352, True, 1.988, 0.157397
2023/06/08 10:02:50.856, True, 1.658, 0.158770
2023/06/08 10:02:51.352, True, 2.022, 0.158312
2023/06/08 10:02:51.856, True, 1.658, 0.157092
2023/06/08 10:02:52.360, True, 1.658, 0.156252
2023/06/08 10:02:52.856, True, 2.022, 0.158999
2023/06/08 10:02:53.360, True, 1.660, 0.156710
2023/06/08 10:02:53.864, True, 1.656, 0.160143
2023/06/08 10:02:54.360, True, 1.685, 0.157702
2023/06/08 10:02:54.864, True, 1.658, 0.158694
2023/06/08 10:02:55.368, True, 1.990, 0.158618
2023/06/08 10:02:55.872, True, 1.990, 0.159762
2023/06/08 10:02:56.368, True, 1.685, 0.158694
2023/06/08 10:02:56.872, True, 1.658, 0.158999
2023/06/08 10:02:57.376, True, 1.990, 0.157549
2023/06/08 10:02:57.872, True, 1.685, 0.156939
2023/06/08 10:02:58.376, True, 1.990, 0.157397
2023/06/08 10:02:58.872, True, 1.685, 0.157931
2023/06/08 10:02:59.376, True, 1.989, 0.158465
2023/06/08 10:02:59.880, True, 1.658, 0.159838
2023/06/08 10:03:00.376, True, 1.685, 0.157778
2023/06/08 10:03:00.880, True, 1.658, 0.157473
2023/06/08 10:03:01.384, True, 1.658, 0.157473
2023/06/08 10:03:01.880, True, 2.022, 0.156100
2023/06/08 10:03:02.384, True, 1.658, 0.155947
2023/06/08 10:03:02.888, True, 1.990, 0.156023
2023/06/08 10:03:03.384, True, 1.685, 0.159075
2023/06/08 10:03:03.888, True, 1.991, 0.159533
2023/06/08 10:03:04.392, True, 1.659, 0.160220
2023/06/08 10:03:04.888, True, 1.683, 0.155489
2023/06/08 10:03:05.392, True, 1.658, 0.157778
2023/06/08 10:03:05.896, True, 1.990, 0.157397
2023/06/08 10:03:06.392, True, 1.685, 0.157473
2023/06/08 10:03:06.896, True, 1.989, 0.154345
2023/06/08 10:03:07.392, True, 1.685, 0.160296
2023/06/08 10:03:07.896, True, 1.658, 0.157168
2023/06/08 10:03:08.400, True, 1.989, 0.154803
2023/06/08 10:03:08.896, True, 1.685, 0.157168
2023/06/08 10:03:09.400, True, 1.990, 0.157855
2023/06/08 10:03:09.904, True, 1.658, 0.156939
2023/06/08 10:03:10.400, True, 2.022, 0.156863
2023/06/08 10:03:10.904, True, 1.658, 0.158694
2023/06/08 10:03:11.408, True, 1.992, 0.157092
2023/06/08 10:03:11.904, True, 1.683, 0.157855
2023/06/08 10:03:12.408, True, 1.990, 0.159075
2023/06/08 10:03:12.912, True, 1.658, 0.157778
2023/06/08 10:03:13.408, True, 1.685, 0.156481
2023/06/08 10:03:13.912, True, 1.658, 0.157473
2023/06/08 10:03:14.408, True, 2.022, 0.159152
2023/06/08 10:03:14.912, True, 1.989, 0.154040
2023/06/08 10:03:15.416, True, 1.990, 0.156786
2023/06/08 10:03:15.912, True, 1.685, 0.155032
2023/06/08 10:03:16.416, True, 1.989, 0.155871
2023/06/08 10:03:16.920, True, 1.658, 0.155489
2023/06/08 10:03:17.416, True, 1.685, 0.157092
2023/06/08 10:03:17.920, True, 1.991, 0.157931
2023/06/08 10:03:18.424, True, 1.657, 0.155871
2023/06/08 10:03:18.920, True, 2.022, 0.153887
2023/06/08 10:03:19.424, True, 1.658, 0.155947
2023/06/08 10:03:19.928, True, 1.658, 0.156786
2023/06/08 10:03:20.424, True, 2.022, 0.155871
2023/06/08 10:03:20.928, True, 1.658, 0.159075
2023/06/08 10:03:21.432, True, 1.990, 0.157473
2023/06/08 10:03:21.936, True, 1.657, 0.155413
2023/06/08 10:03:22.432, True, 2.024, 0.157092
2023/06/08 10:03:22.936, True, 1.657, 0.155337
2023/06/08 10:03:23.440, True, 1.657, 0.156710
2023/06/08 10:03:23.936, True, 2.025, 0.155947
2023/06/08 10:03:24.440, True, 1.656, 0.157092
2023/06/08 10:03:24.944, True, 1.989, 0.155947
2023/06/08 10:03:25.440, True, 2.021, 0.158389
2023/06/08 10:03:25.944, True, 1.659, 0.155718
2023/06/08 10:03:26.448, True, 1.988, 0.156863
2023/06/08 10:03:26.943, True, 1.688, 0.156558
2023/06/08 10:03:27.448, True, 1.988, 0.154650
2023/06/08 10:03:27.952, True, 1.656, 0.154421
2023/06/08 10:03:28.448, True, 1.685, 0.157931
2023/06/08 10:03:28.952, True, 1.992, 0.155566
2023/06/08 10:03:29.456, True, 1.656, 0.156786
2023/06/08 10:03:29.952, True, 1.685, 0.155642
2023/06/08 10:03:30.456, True, 1.990, 0.154955
2023/06/08 10:03:30.952, True, 1.688, 0.154650
2023/06/08 10:03:31.456, True, 1.988, 0.154955
2023/06/08 10:03:31.960, True, 1.987, 0.156786
2023/06/08 10:03:32.456, True, 2.021, 0.155108
2023/06/08 10:03:32.960, True, 1.993, 0.155871
2023/06/08 10:03:33.463, True, 1.656, 0.156481
2023/06/08 10:03:33.960, True, 2.022, 0.155566
2023/06/08 10:03:34.464, True, 1.658, 0.157855
2023/06/08 10:03:34.968, True, 1.658, 0.157092
2023/06/08 10:03:35.464, True, 1.688, 0.155642
2023/06/08 10:03:35.967, True, 1.655, 0.155489
2023/06/08 10:03:36.472, True, 1.659, 0.153811
2023/06/08 10:03:36.976, True, 1.989, 0.154192
2023/06/08 10:03:37.471, True, 1.685, 0.157855
2023/06/08 10:03:37.976, True, 1.658, 0.156405
2023/06/08 10:03:38.480, True, 1.989, 0.158618
2023/06/08 10:03:38.976, True, 1.685, 0.155871
2023/06/08 10:03:39.480, True, 1.990, 0.156023
2023/06/08 10:03:39.976, True, 1.685, 0.156634
2023/06/08 10:03:40.479, True, 1.659, 0.157168
2023/06/08 10:03:40.983, True, 1.988, 0.156786
2023/06/08 10:03:41.480, True, 1.685, 0.156329
2023/06/08 10:03:41.984, True, 1.990, 0.155337
2023/06/08 10:03:42.488, True, 1.658, 0.155489
2023/06/08 10:03:42.984, True, 2.022, 0.156023
2023/06/08 10:03:43.488, True, 1.658, 0.156252
2023/06/08 10:03:43.992, True, 1.990, 0.158312
2023/06/08 10:03:44.488, True, 1.685, 0.155337
2023/06/08 10:03:44.991, True, 1.658, 0.157244
2023/06/08 10:03:45.496, True, 1.990, 0.158160
2023/06/08 10:03:46.000, True, 1.658, 0.156558
2023/06/08 10:03:46.496, True, 1.684, 0.157092
2023/06/08 10:03:47.000, True, 1.990, 0.156939
2023/06/08 10:03:47.504, True, 1.990, 0.154040
2023/06/08 10:03:47.999, True, 1.684, 0.156634
2023/06/08 10:03:48.504, True, 1.990, 0.154498
2023/06/08 10:03:49.007, True, 1.989, 0.154955
2023/06/08 10:03:49.503, True, 1.685, 0.155871
2023/06/08 10:03:50.008, True, 1.658, 0.157168
2023/06/08 10:03:50.511, True, 1.992, 0.154955
2023/06/08 10:03:51.008, True, 1.682, 0.155795
2023/06/08 10:03:51.512, True, 1.658, 0.157092
2023/06/08 10:03:52.015, True, 1.989, 0.155718
2023/06/08 10:03:52.512, True, 1.349, 0.157092
2023/06/08 10:03:53.016, True, 1.657, 0.154040
2023/06/08 10:03:53.520, True, 1.989, 0.155718
2023/06/08 10:03:54.023, True, 1.658, 0.155795
2023/06/08 10:03:54.519, True, 1.685, 0.153353
2023/06/08 10:03:55.024, True, 1.991, 0.157855
2023/06/08 10:03:55.528, True, 1.657, 0.155108
2023/06/08 10:03:56.024, True, 1.687, 0.153964
2023/06/08 10:03:56.528, True, 1.656, 0.154040
2023/06/08 10:03:57.031, True, 1.659, 0.155566
2023/06/08 10:03:57.528, True, 2.020, 0.155947
2023/06/08 10:03:58.032, True, 1.658, 0.156939
2023/06/08 10:03:58.536, True, 1.659, 0.153582
2023/06/08 10:03:59.032, True, 2.023, 0.156558
2023/06/08 10:03:59.536, True, 1.657, 0.154192
2023/06/08 10:04:00.040, True, 1.659, 0.155489
2023/06/08 10:04:00.536, True, 2.023, 0.155947
2023/06/08 10:04:01.040, True, 1.658, 0.156023
2023/06/08 10:04:01.544, True, 1.658, 0.155795
2023/06/08 10:04:02.040, True, 1.685, 0.152667
2023/06/08 10:04:02.544, True, 1.658, 0.154879
2023/06/08 10:04:03.048, True, 1.657, 0.153201
2023/06/08 10:04:03.544, True, 1.688, 0.153964
2023/06/08 10:04:04.048, True, 1.988, 0.156786
2023/06/08 10:04:04.552, True, 1.658, 0.154269
2023/06/08 10:04:05.048, True, 2.020, 0.155337
2023/06/08 10:04:05.552, True, 1.661, 0.155642
2023/06/08 10:04:06.056, True, 1.988, 0.157473
2023/06/08 10:04:06.552, True, 1.682, 0.155413
2023/06/08 10:04:07.056, True, 1.990, 0.153582
2023/06/08 10:04:07.560, True, 1.659, 0.154421
2023/06/08 10:04:08.056, True, 1.686, 0.155566
2023/06/08 10:04:08.560, True, 1.987, 0.156710
2023/06/08 10:04:09.064, True, 1.658, 0.152590
2023/06/08 10:04:09.560, True, 1.687, 0.152743
2023/06/08 10:04:10.064, True, 1.986, 0.157015
2023/06/08 10:04:10.568, True, 1.658, 0.156481
2023/06/08 10:04:11.064, True, 1.685, 0.155718
2023/06/08 10:04:11.568, True, 1.657, 0.158007
2023/06/08 10:04:12.072, True, 1.990, 0.155642
2023/06/08 10:04:12.568, True, 1.685, 0.155413
2023/06/08 10:04:13.072, True, 1.990, 0.154192